Location: Newark
(54.0500°N, 12.8333°E)
Time: 20:32:27
(UTC+00:00)

A-11 Canister half - All Passes

Search period start: 21 January 2020 00:00
Search period end: 31 January 2020 00:00
Orbit: 1525 x 1684 km, 47.3° (Epoch: 21 January)

Date Brightness Start Highest point End Pass type
(mag) Time Alt. Az. Time Alt. Az. Time Alt. Az.
21 Jan - 00:19:06 10° W 00:27:06 30° SW 00:35:15 10° SSE night (unlit)
21 Jan - 15:47:18 10° SSE 15:51:12 13° SE 15:55:08 10° E daylight
21 Jan - 17:45:33 10° SSW 17:53:49 37° SSE 18:02:20 10° E visible
21 Jan - 19:48:26 10° WSW 19:57:38 57° S 20:07:08 10° E visible
21 Jan - 21:52:38 10° W 22:01:52 54° SSW 22:11:22 10° ESE visible
21 Jan - 23:57:27 10° W 00:05:31 31° SW 00:13:47 10° SSE night (unlit)
22 Jan - 15:26:21 10° SSE 15:29:42 12° SE 15:33:04 10° ESE daylight
22 Jan - 17:24:05 10° SSW 17:32:16 35° SE 17:40:39 10° E visible
22 Jan - 19:26:52 10° WSW 19:36:01 57° S 19:45:29 10° E visible
22 Jan - 21:31:02 10° W 21:40:15 54° SSW 21:49:46 10° ESE visible
22 Jan - 23:35:48 10° W 23:43:57 32° SW 23:52:18 10° SSE night (unlit)
23 Jan - 15:05:33 10° SE 15:08:12 11° SE 15:10:51 10° ESE daylight
23 Jan - 17:02:37 10° SSW 17:10:42 34° SE 17:18:59 10° E visible
23 Jan - 19:05:18 10° WSW 19:14:25 56° S 19:23:50 10° E visible
23 Jan - 21:09:25 10° W 21:18:38 55° SSW 21:28:09 10° ESE visible
23 Jan - 23:14:09 10° W 23:22:22 33° SW 23:30:48 10° SSE visible
24 Jan - 01:23:06 10° WSW 01:24:55 11° WSW 01:26:46 10° SW night (unlit)
24 Jan - 14:45:05 10° SE 14:46:42 11° ESE 14:48:20 10° ESE daylight
24 Jan - 16:41:10 10° SSW 16:49:09 33° SE 16:57:18 10° E visible
24 Jan - 18:43:43 10° WSW 18:52:49 55° SSE 19:02:11 10° E visible
24 Jan - 20:47:49 10° W 20:57:01 56° SSW 21:06:31 10° ESE visible
24 Jan - 22:52:30 10° W 23:00:48 34° SW 23:09:19 10° SSE visible
25 Jan - 01:00:40 10° WSW 01:03:25 11° SW 01:06:11 10° SW night (unlit)
25 Jan - 16:19:43 10° SSW 16:27:35 32° SE 16:35:37 10° E visible
25 Jan - 18:22:10 10° WSW 18:31:13 55° SSE 18:40:32 10° E visible
25 Jan - 20:26:14 10° W 20:35:25 56° S 20:44:54 10° ESE visible
25 Jan - 22:30:52 10° W 22:39:13 35° SW 22:47:48 10° SSE visible
26 Jan - 00:38:29 10° WSW 00:41:54 12° SW 00:45:21 10° SW night (unlit)
26 Jan - 15:58:17 10° SSW 16:06:03 31° SE 16:13:56 10° E visible
26 Jan - 18:00:36 10° WSW 18:09:37 54° SSE 18:18:53 10° E visible
26 Jan - 20:04:38 10° W 20:13:48 57° S 20:23:17 10° ESE visible
26 Jan - 22:09:14 10° W 22:17:38 36° SSW 22:26:18 10° SSE visible
27 Jan - 00:16:26 10° WSW 00:20:22 13° SW 00:24:21 10° SSW night (unlit)
27 Jan - 15:36:52 10° SSW 15:44:30 30° SE 15:52:15 10° E daylight
27 Jan - 17:39:02 10° WSW 17:48:01 53° SSE 17:57:15 10° E visible
27 Jan - 19:43:02 10° W 19:52:12 57° S 20:01:39 10° ESE visible
27 Jan - 21:47:37 10° W 21:56:04 37° SSW 22:04:46 10° SSE visible
27 Jan - 23:54:28 10° W 23:58:51 14° SW 00:03:17 10° SSW night (unlit)
28 Jan - 15:15:27 10° SSW 15:22:57 29° SE 15:30:34 10° E daylight
28 Jan - 17:17:29 10° SW 17:26:25 52° SSE 17:35:36 10° E visible
28 Jan - 19:21:26 10° W 19:30:35 57° S 19:40:02 10° ESE visible
28 Jan - 21:25:59 10° W 21:34:28 38° SSW 21:43:14 10° SSE visible
28 Jan - 23:32:34 10° W 23:37:19 15° SW 23:42:09 10° SSW visible
29 Jan - 14:54:02 10° SSW 15:01:24 27° SE 15:08:53 10° E daylight
29 Jan - 16:55:56 10° SW 17:04:50 51° SSE 17:13:57 10° E visible
29 Jan - 18:59:50 10° W 19:08:59 58° S 19:18:25 10° ESE visible
29 Jan - 21:04:21 10° W 21:12:54 39° SSW 21:21:42 10° SSE visible
29 Jan - 23:10:42 10° W 23:15:48 16° SW 23:20:58 10° SSW visible
30 Jan - 14:32:39 10° S 14:39:52 26° SE 14:47:11 10° E daylight
30 Jan - 16:34:23 10° SW 16:43:14 50° SSE 16:52:19 10° E visible
30 Jan - 18:38:15 10° W 18:47:23 58° S 18:56:47 10° ESE visible
30 Jan - 20:42:44 10° W 20:51:19 40° SSW 21:00:09 10° SE visible
30 Jan - 22:48:53 10° W 22:54:16 17° SW 22:59:45 10° SSW visible
